Regional Weather Roundup
Issued by NWS Green Bay, WI

Home | Current Version | Previous Version | Graphics & Text | Print | Product List | Glossary Off
Versions: 1 2 3 4 5 6 7 8 9 10 11 12 13 14 15 16 17 18 19 20 21 22 23 24 25 26 27 28 29 30 31 32 33 34 35 36 37 38 39 40 41 42 43 44 45 46 47 48 49 50

000
ASUS43 KGRB 251310
RWRGRB

NORTH-CENTRAL AND NORTHEAST WISCONSIN REGIONAL WEATHER ROUNDUP
NATIONAL WEATHER SERVICE GREEN BAY WI
800 AM CDT SAT OCT 25 2014

WIZ005-009-010>012-018-019-251400-
NORTH CENTRAL WISCONSIN

CITY           SKY/WX    TMP DP  RH WIND       PRES   REMARKS
IRONWOOD       CLEAR     46  36  66 W13       29.81R
MANITOWISH WTR CLEAR     43  36  75 W7        29.83R
ARBOR VITAE    CLEAR     48  38  68 W9        29.83R
EAGLE RIVER    CLEAR     47  34  60 W10G17    29.81R
LAND O LAKES   CLEAR     47  36  64 W8        29.80R
RHINELANDER    CLEAR     46  36  68 W12G20    29.84R
PHILLIPS       CLEAR     45  36  70 W3        29.87R
ANTIGO         CLEAR     46  39  78 W9        29.84R
TOMAHAWK       CLEAR     46  36  69 W8        29.86R
MERRILL        CLEAR     48  38  70 W9        29.86R
$$

WIZ013-073-251400-
NORTHEAST WISCONSIN

CITY           SKY/WX    TMP DP  RH WIND       PRES   REMARKS
IRON MOUNTAIN  CLEAR     51  37  58 W12       29.74S
MARINETTE      CLEAR     52  46  82 W5        29.78R
OCONTO         CLEAR     51  49  95 W7        29.81R
$$

WIZ017-030-035>037-045-251400-
CENTRAL WISCONSIN

CITY           SKY/WX    TMP DP  RH WIND       PRES   REMARKS
MEDFORD        CLEAR     45  38  77 W9        29.89R
WAUSAU         CLEAR     48  42  80 W10       29.86R
MOSINEE        CLEAR     46  45  93 W9        29.88S
MARSHFIELD     CLEAR     48  40  73 NW10      29.90R
WISC RAPIDS    CLEAR     49  42  77 W8        29.91R
STEVENS POINT  CLEAR     48  41  76 W7        29.89R
WAUPACA        CLEAR     50  47  88 W6        29.87S
SHAWANO        CLEAR     52  47  83 SW3       29.84S
CLINTONVILLE   CLEAR     50  45  81 W6        29.84S
$$

WIZ038-039-048-051-251400-
FOX VALLEY

CITY           SKY/WX    TMP DP  RH WIND       PRES   REMARKS
NWS GREEN BAY  CLEAR     52  49  89 W7        29.84R FOG
APPLETON       PTCLDY    48  46  93 W8        29.86R
OSHKOSH        CLEAR     52  50  93 W7        29.87R FOG
FOND DU LAC    CLEAR     53  48  83 W9        29.88R
$$

WIZ022-050-052-251400-
EAST CENTRAL WISCONSIN

CITY           SKY/WX    TMP DP  RH WIND       PRES   REMARKS
STURGEON BAY   CLEAR     52  48  87 W10       29.80R
MANITOWOC      CLEAR     54  51  90 W9        29.84R
SHEBOYGAN      CLEAR     54  50  86 W9        29.86R
$$

LMZ563-521-522-541>543-251400-
LAKESHORE

STATION/POSITION TIME  TEMP    WIND        PRES    VSBY  WAVE
                       AIR SEA DIR/SP/G                  HT/PER
                 (UTC) (F)     (DEG/KT/KT) (MB)    (MI)  (FT/S)
SHEBOYGAN LKSHOR 1300   56 51  270/ 11/ 13 1011.2R
KEWAUNEE LKSHORE 1300   54     280/  8/ 11 1008.8R
TWO RIVERS CG    1200   53 52              1010.4   3 1/2  2
NORTHPORT PIER   1300   54     270/  7/ 11 1007.5F
N MID LAKE BUOY  1300   54 51  260/ 17/ 19 1006.6R         3/ 5
SISTER BAY LKSHO 1300          290/ 13/ 14   N/A
STURGEON BAY CG  1200   53 50  260/  6     1009.0      6   1
CHAMBERS ISLAND  1300   53     220/  7/ 13 1008.5R
MENOMINEE LKSHOR 1300   52     240/  8/  9 1009.2S
$$



USA.gov is the U.S. government's official web portal to all federal, state and local government web resources and services.